Powrót do katalogu

STARLINK-2110

AktywnyŁącznośćVLEO
NORAD 47389·PAYLOAD·🇺🇸 United States

Wystrzelony Jan 20, 2021 z Cape Canaveral Space Force Station

Loading…

Następne Przeloty (najbliższe 24 godziny)

TLE

ŚwieżeSource: CelesTrak SupGP

Epoka: Sep 14, 2026, 21:16 UTC

1 47389C 21005AS  26257.88659722  .00065505  00000+0  17154-2 0  2575
2 47389  53.1537 234.2962 0004667  46.7470 242.9460 15.38097807    12

Śledź STARLINK-2110 w czasie rzeczywistym z AllMySat

Download on the App Store